#timestamp,LO_Frequency,Hit,StdDev 
1590094815.5,286047000.6,N
1590094835.4,286047001.0,N
1590094855.2,286047002.7,N
1590094875.0,286046999.8,N
1590094875.9,286046999.8,N
1590094895.8,286047001.6,N
1590094915.6,286047002.8,N
1590094935.5,286047002.8,N
1590094955.3,286047002.3,N
1590094975.1,286047002.8,N
1590094995.9,286047001.9,N
1590095015.7,286047004.2,Y
1590095035.5,286047004.4,P
1590095055.4,286047004.2,N
1590095075.2,286047005.9,P
1590095095.1,286047004.0,N
1590095096.0,286047004.0,N
1590095115.8,286047004.3,N
1590095135.6,286047002.1,N
1590095155.5,286047001.5,N
1590095175.3,286047004.4,N
1590095195.1,286047004.3,N
1590095215.9,286047001.7,N
1590095235.7,286047001.3,N
1590095255.6,286047003.6,N
1590095275.4,286047003.5,N
1590095295.2,286047006.0,Y
1590095315.1,286047000.2,P
1590095316.0,286047000.2,N
1590095335.8,286047002.3,N
1590095355.6,286047000.4,N
1590095375.5,286047002.5,N
1590095395.3,286047002.0,N
1590095415.2,286047000.1,N
1590095435.9,286047001.0,N
1590095455.7,286047000.9,N
1590095475.6,286047000.7,N
1590095495.4,286047000.6,N
1590095515.2,286047000.6,N
1590095535.1,286046999.8,N
1590095536.0,286046999.8,N
1590095555.8,286046998.1,N
1590095575.7,286047001.0,N
1590095595.5,286046998.2,N
1590095615.3,286046998.3,N
1590095635.2,286047001.1,N
1590095655.9,286047000.5,N
1590095675.7,286047000.8,N
1590095695.6,286047000.9,N
1590095715.4,286047000.5,N
1590095735.2,286047000.4,N
1590095755.1,286046998.1,N
1590095756.0,286046998.1,N
1590095775.8,286047000.0,N
1590095795.7,286047000.0,N
1590095815.5,286047002.4,N
1590095835.3,286047000.4,N
1590095855.2,286047002.7,N
1590095875.0,286047001.0,N
1590095875.9,286047001.0,N
1590095895.7,286046999.7,N
1590095915.6,286047001.6,N
1590095935.4,286047004.4,Y
1590095955.3,286047000.2,P
1590095975.1,286047001.9,P
1590095976.0,286047001.9,N
1590095995.8,286047001.9,N
1590096015.7,286047001.9,N
1590096035.5,286047002.2,N
1590096055.4,286047000.2,N
1590096075.2,286047000.1,N
1590096095.0,286047002.0,N
1590096095.9,286047002.0,N
1590096115.8,286047002.0,N
1590096135.6,286047001.9,N
1590096155.4,286047000.8,N
1590096175.3,286046997.0,Y
1590096195.1,286046997.5,P
1590096215.9,286046995.4,N
1590096235.7,286046995.5,N
1590096255.5,286046995.0,N
1590096275.4,286046998.0,N
1590096295.2,286046995.2,N
1590096315.1,286046995.0,N
1590096316.0,286046995.0,N
1590096335.8,286046995.2,N
1590096355.6,286046995.4,N
1590096375.5,286046997.0,N
1590096395.3,286046999.0,N
1590096415.1,286046998.2,N
1590096435.9,286047000.1,N
1590096455.7,286047002.8,N
1590096475.6,286047000.3,N
1590096495.4,286046998.1,N
1590096515.2,286046998.4,N
1590096535.1,286046998.4,N
1590096536.0,286046998.4,N
1590096555.8,286046998.6,N
1590096575.6,286046998.7,N
1590096595.5,286046998.2,N
1590096615.3,286046998.4,N
1590096635.2,286046998.6,N
1590096655.9,286046999.2,N
1590096675.7,286046998.6,N
1590096695.6,286047000.3,N
1590096715.4,286046998.2,N
1590096735.2,286047000.6,N
1590096755.1,286047002.1,N
1590096756.0,286047002.1,N
1590096775.8,286046999.7,N
1590096795.7,286047000.0,N
1590096815.5,286047002.6,N
1590096835.3,286047001.6,N
1590096855.2,286047003.2,N
1590096875.0,286047003.3,N
1590096875.9,286047003.3,N
1590096895.8,286047003.0,N
1590096915.6,286047003.3,N
1590096935.4,286047003.6,N
1590096955.3,286047003.9,N
1590096975.1,286047001.5,N
1590096995.8,286047002.7,N
1590097015.7,286047002.3,N
1590097035.5,286046999.7,N
1590097055.4,286046999.9,N
1590097075.2,286046999.9,N
1590097095.0,286047002.3,N
1590097095.9,286047002.3,N
1590097115.8,286047000.2,N
1590097135.6,286046998.6,N
1590097155.4,286047001.0,N
1590097175.3,286046998.5,N
1590097195.1,286046999.5,N
1590097215.9,286046998.9,N
1590097235.7,286046998.1,N
1590097255.5,286046998.6,N
1590097275.4,286046999.4,N
1590097295.2,286046997.8,N
1590097315.0,286046996.8,N
1590097315.9,286046996.8,N
1590097335.8,286046995.5,N
1590097355.6,286046995.0,N
1590097375.5,286046997.1,N
1590097395.3,286046996.7,N
1590097415.1,286046999.5,N
1590097435.9,286046996.7,N
1590097455.7,286046996.9,N
1590097475.5,286046997.3,N
1590097495.4,286046999.4,N
1590097515.2,286046998.4,N
1590097535.1,286047001.2,N
1590097536.0,286047001.2,N
1590097555.8,286046999.8,N
1590097575.6,286047002.3,N
1590097595.5,286046999.7,N
1590097615.3,286047002.0,N
1590097635.2,286047001.7,N
1590097655.9,286047003.5,N
1590097675.7,286047005.8,N
1590097695.6,286047005.4,N
1590097715.4,286047005.2,N
1590097735.2,286047005.8,N
1590097755.1,286047005.6,N
1590097756.0,286047005.6,N
1590097775.8,286047006.0,N
1590097795.7,286047005.5,N
1590097815.5,286047001.4,N
1590097835.3,286047001.6,N
1590097855.2,286047003.8,N
1590097875.0,286047003.2,N
1590097875.9,286047003.2,N
1590097895.7,286047003.3,N
1590097915.6,286047004.2,N
1590097935.4,286047001.6,N
1590097955.3,286047001.3,N
1590097975.1,286047004.4,N
1590097976.0,286047004.4,N
1590097995.8,286047002.8,N
1590098015.7,286046999.9,N
1590098035.5,286046999.9,N
1590098055.3,286046999.0,N
1590098075.2,286047000.3,N
1590098095.0,286047001.1,N
1590098095.9,286047001.1,N
1590098115.8,286047000.0,N
1590098135.6,286046998.1,N
1590098155.4,286046999.0,N
1590098175.3,286046996.6,N
1590098195.1,286047000.7,N
1590098215.8,286047002.7,N
1590098235.7,286046999.3,N
1590098255.5,286046999.5,N
1590098275.4,286046999.3,N
1590098295.2,286046997.8,N
1590098315.0,286046997.5,N
1590098315.9,286046997.5,N
1590098335.8,286046996.8,N
1590098355.6,286047000.7,N
1590098375.4,286047000.8,N
1590098395.3,286047000.0,N
